Dewpoint
64 64 64 64 65 65 65 65 64 65 65 65 65 64 64 65 65 66 65 65 64 64 64 63 63 63 63 63 62 62 62 62 62 62 62 62 63 65 65 64 65 65 63 62 61 60 60 62 63 62 61 58 59 58 59 59 60 60 60 60 60 60 60 60 62 62 62 61 61 61 61 62 62 62 63 63 63 62 62 61 60 60 60 62 62
64 64 64 64 65 64 65 65 65 64 64 64 65 64 64 64 65 66 66 65 65 65 65 63 63 63 63 63 62 61 62 61 62 61 61 62 63 64 66 66 66 66 66 63 62 62 61 59 58 60 58 59 60 59 60 59 59 60 60 60 61 61 60 61 61 61 61 61 61 62 62 62 63 63 63 62 62 62 61 62 62 62 63 63 64
64 64 64 64 64 64 64 65 65 65 64 64 64 64 63 64 65 65 66 66 66 65 64 64 63 62 63 63 63 62 61 62 62 62 61 62 62 63 65 65 66 66 65 65 63 62 61 60 60 60 60 60 60 61 59 59 60 60 61 61 61 61 60 61 60 61 62 62 62 61 62 63 63 63 63 62 62 62 62 62 62 63 63 63 63
65 64 65 64 64 64 64 65 65 66 65 65 64 63 63 63 64 65 66 66 66 65 65 64 62 61 62 63 63 62 61 61 61 61 62 62 62 63 64 65 66 65 64 65 66 63 61 61 61 60 61 60 60 62 59 60 61 61 61 61 61 61 61 61 60 61 61 61 61 60 62 62 63 63 63 62 63 62 62 61 62 62 62 62 63
65 65 66 66 66 66 65 65 65 66 65 65 65 64 64 64 63 64 64 65 65 64 63 63 62 62 62 62 63 62 61 61 61 61 61 62 62 62 63 64 66 66 65 64 65 64 62 61 62 61 60 61 60 62 62 62 62 62 62 61 61 61 61 61 60 60 60 60 60 60 61 62 63 63 63 63 62 62 62 62 62 62 62 61 61
65 65 65 66 66 66 66 66 66 66 66 65 65 65 64 63 63 62 64 64 63 63 63 62 63 62 62 62 62 62 62 61 61 61 62 62 62 62 62 63 64 65 64 64 65 64 65 64 61 61 61 61 62 63 63 64 63 63 62 61 61 61 61 61 60 60 60 60 60 60 61 61 62 62 62 63 63 62 62 62 61 61 61 60 60
67 66 65 65 65 66 66 66 66 65 65 65 65 65 64 64 64 62 62 62 63 63 63 63 62 62 62 63 62 62 62 62 62 62 61 62 62 62 62 62 63 64 64 64 65 65 65 66 62 62 61 61 63 64 64 64 64 63 62 62 62 62 61 60 60 60 60 60 59 59 61 61 61 62 63 62 62 62 62 62 60 61 61 60 60
67 67 67 66 66 66 66 66 65 65 65 65 65 65 64 63 63 63 62 61 61 62 63 62 62 62 62 63 63 63 63 63 62 62 62 62 61 62 62 62 63 63 64 63 64 64 65 66 64 64 62 62 63 64 64 64 64 64 63 62 62 62 62 61 60 61 60 59 59 60 61 61 61 61 62 62 62 62 62 62 62 62 61 61 61
68 68 67 67 67 67 67 65 65 65 65 65 65 65 64 64 63 63 63 62 61 61 62 62 62 62 62 62 63 63 63 63 62 63 62 62 62 62 62 62 62 64 64 63 63 63 65 66 64 65 64 64 64 64 64 64 64 64 64 63 63 64 62 62 61 61 60 59 59 60 62 61 61 60 61 62 62 62 62 62 62 62 62 62 62
67 67 67 67 67 67 65 65 65 65 65 65 65 64 64 64 64 63 63 63 62 62 62 62 62 62 62 62 63 63 63 63 63 64 63 62 62 62 62 62 63 63 63 63 62 63 64 65 65 65 65 63 63 64 64 64 63 64 64 64 64 64 63 63 62 62 61 59 59 61 61 60 60 61 62 62 62 62 62 62 61 62 62 61 61
67 67 67 67 67 66 65 65 65 66 65 65 64 64 64 64 63 64 63 63 63 62 62 62 61 61 61 62 62 63 63 63 63 63 63 62 62 62 62 62 62 62 63 63 62 62 63 64 64 64 64 64 64 63 64 64 64 64 65 65 64 64 63 63 63 62 60 60 59 59 60 61 61 61 62 62 62 62 62 62 61 62 62 61 61
65 66 67 67 67 66 66 65 65 65 65 65 64 64 64 63 63 63 63 63 64 63 62 62 61 61 62 62 62 62 62 63 63 63 63 62 62 62 62 62 62 62 62 63 62 62 62 63 64 63 64 64 64 64 64 65 65 65 65 65 64 64 64 64 64 63 61 60 59 59 60 61 61 61 62 62 62 62 62 62 62 62 62 61 60
66 66 66 66 67 67 67 66 65 65 65 65 65 65 64 64 64 64 63 63 62 62 62 62 61 61 61 61 61 62 63 63 62 62 62 63 63 62 62 61 62 62 62 63 62 62 62 62 62 63 63 63 64 64 64 65 65 65 65 65 65 65 64 64 64 63 62 61 60 60 61 62 62 61 62 62 62 62 62 62 61 61 61 61 61
66 66 67 66 66 67 67 67 66 66 66 66 65 66 65 64 64 63 63 63 62 62 62 62 60 60 59 59 59 60 61 62 62 62 62 62 63 62 62 62 61 61 62 62 62 61 61 61 62 62 62 63 63 63 64 64 64 65 65 64 64 66 65 64 64 64 63 61 61 61 61 61 62 62 62 62 62 62 62 62 62 62 61 61 61
65 66 66 66 66 66 67 67 67 67 66 65 65 65 65 64 64 62 62 62 63 62 62 62 60 60 59 59 58 57 58 60 61 61 62 62 63 62 62 62 61 62 62 62 62 62 61 61 61 61 62 63 63 63 64 64 65 65 64 64 65 65 65 64 64 64 64 61 61 61 61 61 62 62 62 62 62 62 62 62 62 61 61 61 61
65 65 65 65 66 66 66 66 66 67 66 65 65 65 64 64 63 63 63 61 61 62 63 63 62 61 58 57 57 56 55 56 58 60 61 61 62 62 63 62 62 62 62 61 61 61 61 61 60 61 62 63 63 63 64 64 64 65 65 64 65 65 65 64 64 64 64 62 61 61 62 61 62 62 62 61 61 62 61 61 61 61 61 61 61
65 65 66 65 65 65 65 66 66 66 66 65 64 64 65 65 64 63 62 62 61 62 62 63 62 63 61 58 56 55 55 57 57 59 60 60 61 62 62 63 62 62 61 61 62 61 61 61 61 60 61 62 63 63 63 64 64 65 65 64 65 65 65 64 64 63 63 63 62 62 62 61 62 62 62 62 62 62 62 61 61 61 61 60 60
66 66 65 65 64 65 65 65 65 65 65 64 64 65 64 64 64 64 63 63 62 62 62 62 63 62 62 62 60 58 56 58 57 56 58 60 60 61 62 62 63 63 62 61 60 61 61 61 61 61 61 61 62 63 63 63 64 65 65 64 63 64 65 64 65 64 64 63 63 63 62 62 62 62 62 62 62 62 62 62 61 61 60 60 59
64 65 65 65 64 64 64 64 64 63 64 64 64 64 64 64 65 64 64 64 64 62 61 62 62 62 62 62 62 61 60 57 56 57 55 58 60 61 61 62 63 62 62 62 61 62 61 61 61 60 61 61 62 63 63 63 63 64 64 64 63 62 62 62 63 65 63 65 65 63 63 63 62 63 62 62 61 62 62 62 61 61 60 59 59
63 63 64 64 64 64 63 62 62 62 64 64 64 64 64 64 64 64 64 64 63 62 62 62 61 61 62 61 61 61 61 60 60 58 56 55 57 61 62 62 62 63 63 63 62 62 61 62 61 61 61 61 61 62 62 63 63 64 64 63 62 62 62 61 61 61 64 64 65 63 63 63 63 63 63 62 61 62 62 62 61 61 60 60 59
62 62 62 62 63 63 63 63 63 63 63 64 64 64 64 63 63 63 63 63 64 63 63 62 62 61 61 61 61 61 61 61 60 60 57 56 56 57 58 61 62 62 62 63 63 63 62 61 61 62 61 61 61 61 62 63 63 63 63 61 62 61 61 61 58 57 57 62 63 64 63 63 63 63 63 62 62 62 62 62 61 61 60 59 58
61 61 61 61 62 63 63 62 62 63 64 63 63 63 63 63 63 63 63 62 63 63 63 63 63 63 62 61 60 60 60 59 59 59 59 59 56 57 57 58 58 60 62 62 62 63 62 62 62 62 61 61 61 61 61 62 63 62 62 61 62 61 62 61 57 57 57 57 62 63 63 61 63 64 63 62 62 62 61 62 62 61 59 58 57
60 60 60 60 61 62 62 62 63 63 63 63 63 63 63 63 63 63 63 63 63 63 63 63 63 62 61 61 60 60 59 58 58 59 58 57 57 57 57 58 59 59 61 62 62 62 63 63 63 62 62 62 61 61 62 62 62 62 61 60 61 61 61 60 57 56 56 58 61 63 63 62 61 63 63 62 62 61 61 62 62 61 58 57 56
59 59 59 59 60 60 61 62 62 62 62 62 63 63 63 63 63 63 63 63 63 63 63 62 62 62 62 62 61 61 61 60 60 60 59 58 58 57 58 58 59 59 60 62 63 63 63 62 62 62 62 62 62 62 62 62 62 62 61 61 60 60 61 61 58 56 54 55 58 62 64 64 62 62 63 62 62 61 60 60 59 56 56 57 56
57 57 57 58 59 59 60 61 60 60 59 59 60 61 62 63 63 63 63 63 63 63 62 62 62 62 62 62 62 61 61 62 61 60 60 60 59 58 59 59 57 58 60 61 60 62 62 62 62 62 62 62 62 62 62 62 62 62 61 61 60 59 59 62 61 57 55 53 56 61 63 63 63 62 63 62 62 62 61 59 58 55 56 56 56
53 54 55 56 56 58 59 58 55 54 54 55 56 56 57 59 61 62 62 63 63 62 62 62 62 62 62 61 61 62 62 62 61 61 60 60 59 58 58 58 58 58 59 59 60 60 61 62 62 62 62 62 62 63 63 62 63 61 61 62 61 58 58 59 61 59 57 53 53 58 60 61 62 62 62 62 61 61 59 56 54 55 53 52 53
52 52 51 52 53 55 56 54 52 52 52 53 53 53 54 55 56 57 59 60 59 61 62 62 61 62 62 62 61 62 62 62 62 61 61 61 60 59 58 56 57 57 57 58 59 60 59 61 62 62 62 62 63 63 63 63 62 61 61 62 63 58 57 58 59 61 58 55 52 54 56 58 58 58 59 59 58 57 57 56 56 54 53 53 54
50 50 50 50 51 51 53 52 50 50 49 49 50 51 51 53 53 53 54 54 54 56 58 60 61 62 62 62 62 62 62 62 62 62 62 62 61 61 60 58 56 54 57 56 57 58 60 60 62 63 62 62 62 62 62 62 63 61 61 63 63 61 56 56 58 60 59 57 54 54 55 55 56 56 57 57 59 58 57 57 56 55 53 54 57
49 50 49 49 49 50 50 51 48 48 47 47 47 47 48 50 50 51 52 51 52 52 54 56 58 61 62 62 62 62 62 62 62 62 62 62 62 62 61 60 59 56 55 55 56 56 58 60 60 61 63 62 62 62 62 62 62 62 63 63 63 63 59 56 56 57 58 56 54 54 55 56 57 57 59 59 59 58 57 56 56 55 54 56 57
48 49 48 48 48 48 48 49 47 46 45 45 45 44 45 46 46 48 48 49 50 51 52 53 54 56 59 61 62 61 62 62 62 62 62 62 62 61 61 61 60 58 57 55 56 58 58 60 61 61 62 62 62 62 62 62 61 61 62 62 63 63 58 56 55 55 56 55 53 52 53 55 57 58 60 59 58 57 55 55 55 54 54 57 55
47 48 48 47 47 47 47 48 46 45 44 44 44 43 43 44 44 45 45 45 46 47 48 50 51 53 54 55 59 61 62 62 62 62 62 62 62 62 61 61 60 60 58 58 55 58 59 58 60 62 62 62 62 62 62 62 61 61 62 62 62 60 59 57 55 55 55 54 52 52 54 55 55 56 57 59 58 57 56 56 56 56 56 56 55
47 47 46 46 46 46 46 46 46 44 43 43 43 43 43 43 43 43 43 44 44 44 46 47 48 49 50 51 53 55 59 61 62 61 62 62 62 61 61 61 61 60 60 58 57 56 59 60 60 61 62 62 63 62 62 61 61 59 62 62 62 59 60 60 55 55 55 54 53 53 57 56 54 56 57 58 57 57 57 57 57 57 56 54 53
45 46 45 45 45 45 45 45 45 44 42 42 42 42 42 42 42 42 42 43 42 43 45 45 46 47 48 48 49 51 53 55 59 61 62 62 62 61 61 61 61 61 60 59 57 57 59 60 60 60 62 62 62 63 62 61 61 61 60 62 62 62 61 61 59 54 54 53 52 51 53 54 53 57 58 57 57 57 56 55 55 54 54 53 51
44 44 44 44 44 44 43 43 43 42 41 41 41 41 41 41 41 42 42 42 42 42 43 44 44 45 47 47 48 49 50 52 53 55 59 61 61 61 61 61 61 60 61 59 58 57 57 59 59 60 61 62 61 63 62 61 61 61 61 62 61 61 60 60 60 59 53 53 52 51 52 53 53 54 54 53 53 53 53 52 51 51 53 51 48
43 44 44 43 43 43 43 43 42 41 40 40 40 40 40 40 40 41 42 42 42 42 42 43 43 44 45 46 47 48 49 50 51 52 54 56 60 61 61 61 61 61 61 61 59 58 57 58 60 59 60 61 61 61 62 62 61 61 61 61 61 60 60 60 60 59 53 52 52 51 51 52 52 53 52 52 51 51 51 51 50 50 50 50 48
42 43 43 43 43 42 42 41 41 40 39 39 39 39 39 39 39 40 40 41 42 42 42 43 43 44 45 45 46 47 48 48 49 50 52 54 56 58 60 61 61 61 61 61 60 59 59 58 59 59 60 60 60 61 61 62 62 61 61 61 62 61 61 60 60 59 55 52 52 52 52 52 52 52 51 51 51 51 50 50 50 50 49 50 49
41 41 42 42 42 41 41 40 40 40 39 39 39 38 39 39 39 40 40 41 42 42 43 43 45 44 45 45 45 46 47 47 48 49 50 51 52 54 55 58 60 61 61 61 61 61 59 58 59 60 60 60 61 61 61 61 61 61 60 60 60 61 60 61 60 60 55 51 52 52 51 51 51 51 51 50 50 50 50 50 50 50 50 50 49
40 41 40 40 40 39 39 39 40 39 39 39 38 38 38 38 39 39 40 40 41 42 43 43 44 45 45 45 46 46 46 47 48 49 50 50 50 51 52 54 56 59 60 61 61 60 60 60 59 59 59 59 59 60 60 61 60 60 59 59 60 60 59 59 59 59 58 55 55 55 52 52 51 51 51 50 50 49 49 49 50 50 50 49 49
40 40 40 39 40 39 39 39 39 39 39 39 38 38 38 38 38 39 39 40 41 42 43 44 44 45 45 46 46 46 46 47 48 49 49 48 49 50 51 51 52 53 55 59 60 60 60 59 59 59 59 59 59 59 60 61 61 60 59 57 57 58 58 58 57 59 58 56 54 52 53 53 53 53 51 50 49 50 49 49 50 50 50 49 49
40 39 39 39 39 39 39 39 39 39 38 38 38 38 38 38 38 38 39 40 41 42 43 43 44 44 44 44 45 45 46 47 47 46 47 47 47 47 48 49 51 52 53 55 57 59 59 59 59 59 59 59 59 59 60 59 59 59 59 58 56 56 56 58 58 57 58 57 56 56 53 53 53 53 50 50 50 50 50 49 50 50 50 49 48
41 40 39 39 39 38 38 38 38 38 39 39 39 38 38 38 38 38 39 39 40 41 42 42 43 43 43 43 44 44 46 48 46 46 46 46 46 46 46 47 47 48 50 53 55 57 58 58 58 59 59 58 58 58 57 57 57 57 57 58 57 56 56 56 57 58 58 57 56 56 56 56 56 56 56 55 54 52 51 50 51 51 50 48 48
40 40 39 39 38 38 38 38 38 38 38 39 40 39 39 38 38 39 39 39 39 40 41 41 42 42 42 42 43 46 45 45 45 44 43 43 44 44 46 46 46 46 47 49 52 55 57 57 58 58 57 57 58 58 57 57 58 58 57 56 56 56 56 55 56 57 58 58 56 56 56 56 56 56 56 55 55 53 54 53 53 51 50 47 47
40 40 39 38 38 38 38 38 37 38 38 39 38 37 37 38 38 38 38 39 39 39 39 40 40 41 41 41 41 43 44 44 44 43 42 42 41 42 42 43 44 44 44 45 48 52 55 56 58 58 58 57 58 58 58 58 57 57 57 56 56 55 54 53 52 54 58 58 56 55 55 57 57 55 55 55 55 53 53 54 50 49 48 47 47
39 39 38 38 38 38 38 38 38 38 38 39 37 37 37 37 38 38 38 38 39 39 38 38 39 40 40 40 40 41 42 43 43 42 41 41 41 40 40 40 40 41 41 43 45 48 51 54 56 58 58 57 58 58 58 58 57 57 56 56 55 55 54 54 54 53 55 58 56 55 55 56 57 56 55 55 55 54 53 51 48 48 48 47 47
38 37 37 38 38 38 38 37 38 37 37 38 37 37 37 37 37 38 38 38 38 38 38 38 39 39 39 40 40 40 41 44 44 40 40 40 40 40 40 41 41 40 39 39 40 45 50 52 54 57 58 58 58 58 58 59 57 56 56 55 55 55 54 54 55 55 54 57 56 55 54 55 56 55 55 55 55 54 53 49 48 47 47 47 46
37 37 37 37 37 37 38 37 38 37 37 38 37 37 37 37 36 37 37 37 38 38 38 38 39 39 39 39 39 39 40 40 39 39 39 38 38 39 40 41 42 42 42 41 41 41 45 50 53 54 57 59 58 59 59 59 57 56 55 55 55 55 55 54 55 55 54 57 55 54 53 54 55 55 55 56 56 54 53 50 47 47 47 46 46
36 36 36 36 37 37 37 37 38 37 37 38 37 37 37 36 37 37 37 37 37 37 37 38 38 39 38 39 39 39 39 39 39 39 38 38 38 39 40 41 42 42 43 44 45 48 50 50 51 53 56 58 59 59 60 60 58 57 56 55 55 55 55 54 52 52 53 56 56 55 52 54 54 54 54 55 55 54 53 48 47 47 46 46 45
36 36 36 36 36 36 36 37 37 37 37 37 37 37 37 36 37 37 36 36 36 36 37 37 38 38 38 38 39 38 38 38 39 38 38 38 38 39 40 42 43 43 43 44 43 44 49 55 55 54 55 57 54 58 59 60 59 58 57 57 56 55 54 52 52 50 51 55 56 55 53 52 53 54 49 51 53 52 52 51 46 47 46 46 45
35 35 36 35 36 36 36 36 37 37 36 37 37 37 37 36 37 36 36 35 35 36 36 37 37 38 37 38 38 38 37 37 38 36 36 38 38 39 41 43 44 43 43 45 43 42 42 44 46 47 48 48 47 48 48 48 54 57 58 56 54 54 52 51 51 49 50 52 55 55 53 50 52 49 45 46 49 49 50 50 49 47 46 45 45
34 34 37 35 35 36 36 36 37 37 36 37 37 37 37 36 37 36 35 35 35 35 36 36 37 37 37 40 41 37 37 37 37 36 36 38 38 39 41 42 43 44 45 47 49 51 46 45 45 45 45 45 45 45 46 46 46 51 57 55 54 54 52 51 50 49 50 50 52 55 51 50 48 46 43 43 43 43 45 48 48 48 46 45 45
34 34 37 35 34 35 35 36 38 36 36 37 37 37 37 36 37 36 35 35 35 35 35 36 36 36 36 38 39 38 38 37 36 36 36 38 38 39 41 41 42 43 45 46 50 52 54 53 52 51 50 48 49 50 50 47 45 48 57 57 56 54 52 52 52 49 47 47 51 53 50 47 46 46 45 43 40 42 43 44 46 47 47 47 46